This is the latest recevied weather packets stored in our database for station/object KBIX. If no packets are shown the sender has not sent any weather packets the latest 10 day(s).
| Time | Temp. | Humidity | Pressure | Rain* | Wind** | Luminosity | Snow |
|---|---|---|---|---|---|---|---|
| 1778321007 | 22.78° C | 83% | 1007.8 hPa | - | - | - | - |
| 1778320410 | 22.78° C | 83% | 1007.8 hPa | - | - | - | - |
| 1778319811 | 22.78° C | 83% | 1007.8 hPa | - | - | - | - |
| 1778319212 | 22.78° C | 83% | 1007.8 hPa | - | - | - | - |
| 1778318610 | 22.78° C | 83% | 1007.8 hPa | - | - | - | - |
| 1778318015 | 22.78° C | 83% | 1008.5 hPa | - | - | - | - |
| 1778317412 | 22.78° C | 83% | 1008.5 hPa | - | - | - | - |
| 1778316816 | 22.78° C | 83% | 1009.8 hPa | - | - | - | - |
| 1778316213 | 22.78° C | 83% | 1009.8 hPa | - | - | - | - |
| 1778315614 | 22.78° C | 78% | 1009.8 hPa | - | - | - | - |
| 1778315010 | 22.78° C | 78% | 1009.8 hPa | - | - | - | - |
| 1778314410 | 22.78° C | 78% | 1010.2 hPa | - | - | - | - |
| 1778313809 | 22.78° C | 78% | 1010.2 hPa | - | - | - | - |
| 1778313215 | 23.89° C | 69% | 1010.2 hPa | - | - | - | - |
| 1778312608 | 20.56° C | 77% | 1009.8 hPa | - | - | - | - |
| 1778312012 | 20.56° C | 77% | 1009.8 hPa | - | - | - | - |
| 1778311408 | 21.67° C | 78% | 1011.2 hPa | - | - | - | - |
| 1778310809 | 21.67° C | 83% | 1011.9 hPa | - | - | - | - |
| 1778310208 | 21.67° C | 83% | 1011.9 hPa | - | - | - | - |
| 1778309610 | 21.67° C | 88% | 1011.2 hPa | - | - | - | - |
| 1778309011 | 21.67° C | 88% | 1011.2 hPa | - | - | - | - |
| 1778308404 | 21.67° C | 88% | 1011.2 hPa | - | - | - | - |
| 1778307809 | 21.67° C | 88% | 1011.2 hPa | - | - | - | - |
| 1778307207 | 21.67° C | 83% | 1010.5 hPa | - | - | - | - |
| 1778306608 | 21.67° C | 83% | 1010.5 hPa | - | - | - | - |
* Rain since midnight (hover to see other rain measurements)
** Current wind speed in m/s (hover to see current wind gust speed)